Weather History for Haleyville, AL

Change the Weather History Date:

Saturday, October 15, 2011

  Actual Average (KJFX) Record (KJFX)
Temperature  
Mean Temperature 60 °F -  
Max Temperature 75 °F 74 °F 91 °F (2011)
Min Temperature 45 °F 46 °F 29 °F (1978)
Degree Days  
Heating Degree Days 4    
Growing Degree Days 10 (Base 50)    
Moisture  
Dew Point 43 °F    
Average Humidity 66    
Maximum Humidity 100    
Minimum Humidity 23    
Precipitation  
Precipitation 0.00 in - - ()
Sea Level Pressure  
Sea Level Pressure 30.18 in    
Wind  
Wind Speed 2 mph (NNW)    
Max Wind Speed 10 mph    
Max Gust Speed -    
Visibility 6 miles    
Events      
Averages and records for this station are not official NWS values.
T = Trace of Precipitation, MM = Missing Value Source: NWS Daily Summary

Daily Weather History Graph

Daily Weather History Graph

Search for Another Location

Airport:

Trip Planner

Search our weather history database for the weather conditions in past years. The results will help you decide how hot, cold, wet, or windy it might be!

Date:

Astronomy

Oct. 15, 2011 Rise Set
Actual Time 6:55 AM CDT 6:16 PM CDT
Civil Twilight 6:30 AM CDT 6:41 PM CDT
Nautical Twilight 6:01 AM CDT 7:10 PM CDT
Astronomical Twilight 5:32 AM CDT 7:39 PM CDT
Moon 8:23 PM CDT (10/15) 10:08 AM CDT (10/15)
Length of Visible Light 12h 11m
Length of Day
11h 20m
Waning Gibbous, 89% of the Moon is Illuminated
Oct 15
Waning Gibbous
Oct 19
Last Quarter
Oct 26
New
Nov 2
First Quarter
Nov 10
Full

Hourly Weather History & Observations

Time (CDT) Temp. Dew Point Humidity Pressure Visibility Wind Dir Wind Speed Gust Speed Precip Events Conditions
1:56 AM 52.0 °F 46.9 °F 83% 30.10 in 6.0 mi Calm Calm - N/A   Haze
2:56 AM 50.0 °F 47.8 °F 92% 30.12 in 3.0 mi Calm Calm - N/A   Clear
3:17 AM 50.0 °F 46.4 °F 87% 30.07 in 1.8 mi Calm Calm - N/A   Clear
3:24 AM 48.2 °F 46.4 °F 93% 30.07 in 3.0 mi Calm Calm - N/A   Clear
3:56 AM 48.9 °F 47.8 °F 96% 30.13 in 8.0 mi Calm Calm - N/A   Clear
4:56 AM 46.9 °F 46.9 °F 100% 30.14 in 7.0 mi Calm Calm - N/A   Clear
5:56 AM 46.9 °F 46.9 °F 100% 30.16 in 6.0 mi Calm Calm - N/A   Clear
6:56 AM 46.9 °F 45.9 °F 96% 30.18 in 6.0 mi Calm Calm - N/A   Clear
8:56 AM 59.9 °F 45.0 °F 58% 30.20 in 6.0 mi North 3.5 mph - N/A   Haze
9:56 AM 65.8 °F 41.9 °F 42% 30.22 in 5.0 mi Variable 4.6 mph - N/A   Haze
10:56 AM 70.0 °F 36.0 °F 29% 30.22 in 6.0 mi North 5.8 mph - N/A   Haze
11:56 AM 72.0 °F 36.9 °F 28% 30.22 in 7.0 mi Variable 4.6 mph - N/A   Clear
12:56 PM 73.9 °F 34.9 °F 24% 30.20 in 10.0 mi Variable 4.6 mph - N/A   Clear
1:56 PM 74.8 °F 34.0 °F 23% 30.18 in 10.0 mi NNW 8.1 mph - N/A   Clear
2:56 PM 75.9 °F 36.9 °F 24% 30.18 in 9.0 mi NW 8.1 mph - N/A   Clear
3:56 PM 74.8 °F 37.9 °F 26% 30.19 in 10.0 mi WNW 10.4 mph - N/A   Clear
4:56 PM 72.9 °F 37.9 °F 28% 30.19 in 10.0 mi NW 6.9 mph - N/A   Clear
5:56 PM 68.9 °F 39.9 °F 35% 30.20 in 8.0 mi Calm Calm - N/A   Clear
6:39 PM 60.8 °F 46.4 °F 59% 30.14 in 1.8 mi Calm Calm - N/A   Haze
6:56 PM 59.0 °F 45.9 °F 62% 30.22 in 3.0 mi Calm Calm - N/A   Haze
7:56 PM 54.0 °F 45.0 °F 72% 30.23 in 4.0 mi Calm Calm - N/A   Haze
8:56 PM 50.9 °F 45.0 °F 80% 30.23 in 6.0 mi Calm Calm - N/A   Haze
9:56 PM 48.9 °F 45.0 °F 86% 30.23 in 6.0 mi Calm Calm - N/A   Clear
10:56 PM 47.8 °F 45.0 °F 90% 30.24 in 4.0 mi Calm Calm - N/A   Clear
11:22 PM 46.4 °F 44.6 °F 93% 30.16 in 2.5 mi Calm Calm - N/A   Clear
11:30 PM 46.4 °F 44.6 °F 93% 30.16 in 4.0 mi Calm Calm - N/A   Clear
11:56 PM 45.9 °F 43.9 °F 93% 30.23 in 2.5 mi Calm Calm - N/A   Clear